Погода в Король Халиде

Саудовская Аравия     24°57′21″N   46°42′28″E
темп.,
°C
ветер,
м/с
пор.,
м/с
влажн.,
%
обл.,
%
осадки,
мм/ч
давл.,
гПа
погр.,
м
6 марта, сб
сб600:00+16ссв610320 0.0 1022353
03:00+14с59430 0.0 1021270
06:00+13с49500 0.0 1023221
09:00+16ссв79320 0.0 1024681
12:00+21ссв66160 0.0 1022942
15:00+23с55130 0.0 10191175
18:00+20ссв45160 0.0 102083
21:00+18ссв45190 0.0 102183
7 марта, вс
вс700:00+16ссв34220 0.0 102145
03:00+14ссв34240 0.0 101936
06:00+13ссв33270 0.0 102027
09:00+18ссв44200 0.0 1021450
12:00+23ссв33150 0.0 1018826
15:00+25с22130 0.0 10141225
18:00+23всв33160 0.0 101523
21:00+20в45180 0.0 101654
8 марта, пн
пн800:00+18в34200 0.0 101639
03:00+17юв45230 0.0 101454
06:00+16ююв56240 0.0 101594
09:00+22ю79160 0.0 1015384
12:00+29ю67120 0.0 10121299
15:00+32зюз76110 0.0 10092616
18:00+28ююз56140 0.0 101059
21:00+24ю56170 0.0 101170
9 марта, вт
вт900:00+23ю610190 0.0 1011147
03:00+22ю56210 0.0 101192
06:00+18юз01280 0.0 101323
09:00+26зсз35180 0.0 1015496
12:00+32зюз78120 0.0 10132138
15:00+33сз46120 0.0 10113202
18:00+27ссв610140 0.0 1013217
21:00+23св611170 0.0 1015243
10 марта, ср
ср1000:00+20св47210 0.0 1017107
03:00+18св47250 0.0 1017122
06:00+16св33290 0.0 101834
09:00+22всв451734 0.0 1019455
12:00+27всв441135 0.0 1017972
15:00+29в431018 0.0 10141487
18:00+26в45130 0.0 101560
21:00+22в69160 0.0 1017153